Regional Weather Roundup
Issued by NWS

Home | Current Version | Previous Version | Text Only | Print | Product List | Glossary On
Versions: 1 2 3 4 5 6 7 8 9 10 11 12 13 14 15 16 17 18 19 20 21 22 23 24 25 26 27 28 29 30 31 32 33 34 35 36 37 38 39 40 41 42 43 44 45 46 47 48 49 50
000
ASUS44 KMEG 082110
RWRTN
TENNESSEE HOURLY STATE WEATHER ROUNDUP
NATIONAL WEATHER SERVICE MEMPHIS TN
300 PM CST MON FEB 08 2016

TNZ002-004-019-021-049-052-054-088>092-082200-
WEST TENNESSEE

CITY           SKY/WX    TMP DP  RH WIND       PRES   REMARKS
MEMPHIS INTL   CLOUDY    45  19  35 W16G32    29.93F
NWS MEMPHIS      N/A     42 N/A N/A MISG        N/A
JACKSON        CLOUDY    39  21  48 NW17G26   29.91R WCI  30
DYERSBURG      CLOUDY    37  19  48 NW20      29.93S WCI  27
UNION CITY     CLOUDY    36  19  51 NW23      29.88R WCI  24
PARIS          PTSUNNY   34  19  55 W14G26    29.86R WCI  24
$$

TNZ008-025-027-028-033-062-065-066-082200-
NORTH MIDDLE TENNESSEE

CITY           SKY/WX    TMP DP  RH WIND       PRES   REMARKS
NASHVILLE      LGT SNOW  36  28  75 W13G22    29.81R WCI  27
CLARKSVILLE    LGT SNOW  32  29  88 W10       29.83R VSB 1   WCI  24
SMYRNA         CLOUDY    40  28  62 W17       29.81R WCI  31
COOKEVILLE     PTSUNNY   39  27  60 W8        29.74S WCI  34
CROSSVILLE     CLOUDY    37  22  54 W13       29.72R WCI  29
$$

TNZ061-075-076-078-094-096-097-082200-
SOUTH MIDDLE TENNESSEE

CITY           SKY/WX    TMP DP  RH WIND       PRES   REMARKS
FAYETTEVILLE   CLOUDY    41  25  52 W12G18    29.81R
TULLAHOMA      PTSUNNY   39  19  45 W15       29.78S WCI  31
WINCHESTER     CLOUDY    39  23  52 W8        29.79S WCI  34
MCMINNVILLE    PTSUNNY   39  25  56 W17       29.76S WCI  30
COLUMBIA       CLOUDY    34  28  80 W10       29.83R WCI  26
SHELBYVILLE    CLOUDY    39  30  70 W14       29.81R WCI  31
$$

TNZ017-018-042-046-047-082200-
NORTHEAST TENNESSEE

CITY           SKY/WX    TMP DP  RH WIND       PRES   REMARKS
TRI CITIES     SNOW      36  31  82 W10       29.67R VSB 1/2 WCI  28
$$

TNZ012-013-036-069-073-074-082200-
CENTRAL EAST TENNESSEE

CITY           SKY/WX    TMP DP  RH WIND       PRES   REMARKS
KNOXVILLE      CLOUDY    44  22  41 W18G28    29.70R
OAK RIDGE      CLOUDY    42  28  57 W7        29.73R
GATLINBURG     CLOUDY    45  18  33 W12       29.68R
MORRISTOWN     CLOUDY    43  28  56 N15       29.66R
$$

TNZ083-085-099-082200-
SOUTHEAST TENNESSEE

CITY           SKY/WX    TMP DP  RH WIND       PRES   REMARKS
CHATTANOOGA    CLOUDY    44  21  40 W9G20     29.78R
$$

SKY/WX REPORTED AS FAIR MEANS FEW OR NO CLOUDS BELOW
12 THOUSAND FEET.




USA.gov is the U.S. government's official web portal to all federal, state and local government web resources and services.